Location: Unspecified
(35.6961°N, 0.0000°E)
Time: 19:14:28
(UTC+00:00)

NOAA 18 - Visible Passes

Search period start: 07 August 2020 00:00
Search period end: 17 August 2020 00:00
Orbit: 839 x 862 km, 99.0° (Epoch: 07 August)

Date Brightness Start Highest point End Pass type
(mag) Time Alt. Az. Time Alt. Az. Time Alt. Az.
07 Aug 7.1 19:23:43 10° E 19:26:08 13° ENE 19:28:33 10° NE visible
07 Aug 5.2 21:03:59 39° S 21:06:06 76° WSW 21:11:35 10° NNW visible
08 Aug 5.1 20:52:05 38° SSE 20:54:17 84° ENE 20:59:46 10° NNW visible
09 Aug 5.2 20:40:11 35° SE 20:42:29 65° ENE 20:47:53 10° N visible
09 Aug 7.5 22:22:11 13° WSW 22:23:32 14° W 22:26:10 10° WNW visible
10 Aug 5.5 20:28:19 30° SE 20:30:41 50° ENE 20:35:57 10° N visible
10 Aug 7.2 22:10:18 17° WSW 22:11:35 18° W 22:15:14 10° NW visible
11 Aug 5.8 20:16:25 25° ESE 20:18:56 39° ENE 20:23:58 10° N visible
11 Aug 6.9 21:58:25 22° WSW 21:59:40 23° W 22:03:58 10° NW visible
12 Aug 6.1 20:04:32 20° ESE 20:07:12 30° ENE 20:11:54 10° N visible
12 Aug 6.6 21:46:32 28° WSW 21:47:45 30° W 21:52:31 10° NW visible
13 Aug 6.4 19:52:38 16° ESE 19:55:28 24° ENE 19:59:44 10° NNE visible
13 Aug 6.2 21:34:39 35° SW 21:35:51 39° W 21:40:58 10° NNW visible
14 Aug 6.7 19:40:46 12° ESE 19:43:47 19° ENE 19:47:28 10° NNE visible
14 Aug 5.8 21:22:46 43° SW 21:23:59 51° W 21:29:18 10° NNW visible
15 Aug 7.0 19:29:13 10° E 19:32:06 15° ENE 19:34:59 10° NNE visible
15 Aug 5.4 21:10:53 51° SSW 21:12:09 67° WSW 21:17:35 10° NNW visible
16 Aug 7.1 19:18:56 10° ENE 19:20:27 11° ENE 19:21:59 10° NE visible
16 Aug 5.1 20:59:00 54° S 21:00:19 87° WSW 21:05:48 10° NNW visible
